Rhinelander, WI

1:40 PM CST on January 18, 2017 (GMT -0600)
Rhinelander-Oneida County

Weather History for KRHI - June, 2013

Change the Weather History Date:

Saturday, June 1, 2013

  Actual Average Record
Temperature  
Mean Temperature 55 °F 58 °F  
Max Temperature 69 °F 70 °F 91 °F (1988)
Min Temperature 40 °F 46 °F 27 °F (2003)
Degree Days  
Heating Degree Days 10 8  
Month to date heating degree days 10 8  
Since 1 June heating degree days 10 8  
Since 1 July heating degree days 9021 8894  
Cooling Degree Days 0 1  
Month to date cooling degree days 0 1  
Year to date cooling degree days 14 13  
Since 1 June cooling degree days 0 1  
Growing Degree Days 4 (Base 50)    
Moisture  
Dew Point 51 °F    
Average Humidity 80    
Maximum Humidity 100    
Minimum Humidity 59    
Precipitation  
Precipitation 0.26 in 0.12 in 1.50 in (1945)
Month to date precipitation 0.26 0.12  
Year to date precipitation 13.59 9.80  
Snow  
Snow 0.00 in - 0.00 in ()
Month to date snowfall 0.0  
Since 1 June snowfall 0.0  
Since 1 July snowfall 83.8  
Snow Depth 0.00 in    
Sea Level Pressure  
Sea Level Pressure 29.69 in    
Wind  
Wind Speed 7 mph (NNW)    
Max Wind Speed 14 mph    
Max Gust Speed 23 mph    
Visibility 7 miles    
Events Fog , Rain , Thunderstorm    
T = Trace of Precipitation, MM = Missing Value Source: NWS Daily Summary

Daily Weather History Graph

Daily Weather History Graph

Search for Another Location

Airport or City:

Trip Planner

Search our weather history database for the weather conditions in past years. The results will help you decide how hot, cold, wet, or windy it might be!

Date:

Astronomy

Jun. 01, 2013 Rise Set
Actual Time 5:11 AM CDT 8:40 PM CDT
Civil Twilight 4:34 AM CDT 9:17 PM CDT
Nautical Twilight 3:46 AM CDT 10:06 PM CDT
Astronomical Twilight 2:43 AM CDT 11:09 PM CDT
Moon 1:27 AM CDT (6/1) 1:51 PM CDT (6/1)
Length of Visible Light 16h 42m
Length of Day
15h 28m
Last Quarter, 40% of the Moon is Illuminated
Jun 1
Last Quarter
Jun 8
New
Jun 16
First Quarter
Jun 23
Full
Jun 29
Last Quarter

Hourly Weather History & Observations

Time (CDT) Temp. Windchill Dew Point Humidity Pressure Visibility Wind Dir Wind Speed Gust Speed Precip Events Conditions
12:40 AM 53.6 °F - 53.6 °F 100% 29.70 in 10.0 mi North - - N/A   Mostly Cloudy
12:53 AM 53.1 °F - 52.0 °F 96% 29.70 in 10.0 mi North - - N/A   Mostly Cloudy
1:21 AM 55.4 °F - 53.6 °F 94% 29.73 in 10.0 mi North - - N/A Thunderstorm Overcast
1:31 AM 53.6 °F - 53.6 °F 100% 29.73 in 4.0 mi North - - 0.05 in Rain , Thunderstorm Rain
1:53 AM 54.0 °F - 52.0 °F 93% 29.69 in 10.0 mi North - - 0.06 in   Mostly Cloudy
2:53 AM 51.1 °F - 50.0 °F 96% 29.66 in 10.0 mi North - - N/A   Clear
3:13 AM 50.0 °F - 50.0 °F 100% 29.65 in 1.5 mi North - - N/A   Clear
3:31 AM 48.2 °F - 46.4 °F 93% 29.64 in 0.5 mi North - - N/A Fog Fog
3:34 AM 48.2 °F - 48.2 °F 100% 29.64 in 0.2 mi North - - N/A Fog Fog
3:43 AM 48.2 °F - 48.2 °F 100% 29.64 in 0.8 mi North - - N/A   Mist
3:45 AM 50.0 °F - 48.2 °F 94% 29.64 in 1.2 mi North - - N/A   Partly Cloudy
3:48 AM 50.0 °F - 48.2 °F 94% 29.64 in 4.0 mi North - - N/A   Partly Cloudy
3:53 AM 48.9 °F - 48.0 °F 97% 29.63 in 5.0 mi North - - N/A   Partly Cloudy
4:53 AM 50.0 °F - 50.0 °F 100% 29.62 in 10.0 mi North - - N/A   Clear
5:53 AM 52.0 °F - 51.1 °F 97% 29.65 in 10.0 mi North - - N/A   Mostly Cloudy
6:53 AM 54.0 °F - 52.0 °F 93% 29.66 in 10.0 mi North - - N/A   Overcast
7:53 AM 54.0 °F - 53.1 °F 97% 29.67 in 10.0 mi North - - N/A   Overcast
8:53 AM 55.0 °F - 53.1 °F 93% 29.68 in 10.0 mi North - - N/A   Overcast
9:53 AM 57.9 °F - 53.1 °F 84% 29.67 in 10.0 mi North - - N/A   Overcast
10:53 AM 61.0 °F - 55.0 °F 81% 29.69 in 10.0 mi North - - N/A   Overcast
11:00 AM 60.8 °F - 55.4 °F 82% 29.69 in 6.0 mi North - - 0.01 in Rain Light Rain
11:05 AM 59.0 °F - 55.4 °F 88% 29.70 in 2.5 mi North - - 0.04 in Rain Heavy Rain
11:26 AM 59.0 °F - 55.4 °F 88% 29.68 in 10.0 mi North - - 0.07 in Rain Light Rain
11:53 AM 59.0 °F - 55.0 °F 87% 29.68 in 10.0 mi North - - 0.07 in   Overcast
12:53 PM 61.0 °F - 54.0 °F 78% 29.66 in 10.0 mi North - - N/A   Overcast
1:53 PM 64.0 °F - 55.9 °F 75% 29.65 in 10.0 mi Calm Calm - N/A   Overcast
2:53 PM 68.0 °F - 54.0 °F 61% 29.64 in 10.0 mi West 10.4 mph - N/A   Mostly Cloudy
3:53 PM 66.0 °F - 55.0 °F 68% 29.64 in 10.0 mi NW 10.4 mph 18.4 mph N/A   Overcast
4:53 PM 63.0 °F - 53.1 °F 70% 29.66 in 10.0 mi West 4.6 mph - 0.00 in   Overcast
5:53 PM 63.0 °F - 53.1 °F 70% 29.66 in 10.0 mi NNW 5.8 mph - N/A   Overcast
6:53 PM 60.1 °F - 54.0 °F 80% 29.69 in 10.0 mi North 11.5 mph 20.7 mph N/A   Overcast
7:04 PM 57.2 °F - 53.6 °F 88% 29.70 in 2.5 mi North 12.7 mph 19.6 mph 0.03 in Rain Heavy Rain
7:06 PM 55.4 °F - 53.6 °F 94% 29.70 in 1.8 mi North 10.4 mph 19.6 mph 0.04 in Rain Heavy Rain
7:16 PM 55.4 °F - 53.6 °F 94% 29.70 in 1.8 mi North 6.9 mph - 0.08 in Rain Rain
7:20 PM 55.4 °F - 53.6 °F 94% 29.70 in 2.0 mi North 9.2 mph - 0.09 in Rain Rain
7:30 PM 53.6 °F - 51.8 °F 94% 29.71 in 4.0 mi NNW 11.5 mph 19.6 mph 0.11 in Rain Rain
7:53 PM 51.1 °F - 48.9 °F 92% 29.73 in 10.0 mi North 9.2 mph 19.6 mph 0.12 in   Overcast
8:53 PM 45.0 °F 39.7 °F 44.1 °F 97% 29.76 in 10.0 mi North 10.4 mph 17.3 mph 0.01 in Rain Light Rain
9:53 PM 43.0 °F 37.7 °F 41.0 °F 93% 29.79 in 10.0 mi North 9.2 mph 16.1 mph 0.00 in   Overcast
10:53 PM 42.1 °F 37.7 °F 39.9 °F 92% 29.81 in 10.0 mi North 6.9 mph 17.3 mph N/A   Overcast
11:34 PM 42.8 °F 38.0 °F 39.2 °F 87% 29.81 in 10.0 mi North 8.1 mph 21.9 mph N/A   Overcast
11:49 PM 41.0 °F 35.8 °F 39.2 °F 93% 29.81 in 10.0 mi North 8.1 mph - N/A   Overcast
11:53 PM 41.0 °F 38.0 °F 39.9 °F 96% 29.83 in 10.0 mi Variable 4.6 mph - N/A   Overcast